Location: �clusier
(49.9361°N, 2.7869°E)
Time: 21:50:34
(UTC+00:00)

CENTAUR R/B - Pass Details

Date: 16 June 2021
Orbit: 740 x 1447 km, 63.4° (Epoch: 17 July)

Event Time Altitude Azimuth Distance (km) Brightness Sun altitude
Rises 21:57:26 0° 250° (WSW) 3,525 5.5 -12.6°
Reaches altitude 10° 21:59:54 10° 257° (WSW) 2,676 5.0 -12.7°
Maximum altitude 22:05:57 45° 330° (NNW) 1,427 3.9 -13.2°
Drops below altitude 10° 22:13:10 10° 42° (NE) 3,181 5.5 -13.6°
Sets 22:16:21 0° 48° (NE) 4,254 6.1 -13.8°
